Date String (YYYY-MM-DD hh:mm:ss) UTC,Instrument flags,absolute air pressure of the measurement (hPa),sample flow rate (lpm),inlet stack bypass flow (lpm),air temperature of the measurement (°C),ambient temperature measured by the external sensor (°C),aerosol sample conditioner tube jacket temperature (°C),OPC LED temperature (°C),internal box temperature (°C),relative humidity of the measurement (%),span deviation,mass concentration of particles derived from Lorenz-Mie calculation of OPC scattering (μg/m³),mass concentration of particles derived from Lorenz-Mie calculation of OPC scattering (μg/m³),mass concentration of particles derived from Lorenz-Mie calculation of OPC scattering (μg/m³)
DateTimeUTC,F1_M11,P_M11,Q1_M11,Q2_M11,T1_M11,T2_M11,T3_M11,T4_M11,T5_M11,U1_M11,ZSPAN_M11,X0_M11,X2_M11,X1_M11
2023-11-15 01:00:00,SystemResetWarning,0830.8,4.99,000.00,027.8,026.8,000.0,036.0,029.3,5.9,0000.0,0003.81,0001.71,0001.35
2023-11-15 01:01:00,SystemResetWarning,0830.8,5.01,000.00,027.8,026.8,000.0,036.0,029.3,5.9,0000.0,0003.75,0001.69,0001.36
2023-11-15 01:02:00,SystemResetWarning,0830.8,5.01,000.00,027.8,026.8,000.0,036.1,029.3,5.9,0000.0,0003.73,0001.68,0001.36
2023-11-15 01:03:00,SystemResetWarning,0830.7,5.01,000.00,027.8,026.8,000.0,036.1,029.3,5.9,0000.0,0003.78,0001.68,0001.35
2023-11-15 01:04:00,SystemResetWarning,0830.7,5.00,000.00,027.8,026.8,000.0,036.1,029.3,5.9,0000.0,0003.80,0001.68,0001.35
2023-11-15 01:05:00,SystemResetWarning,0830.7,5.00,000.00,027.8,026.8,000.0,036.1,029.3,5.9,0000.0,0003.78,0001.68,0001.36
2023-11-15 01:06:00,SystemResetWarning,0830.6,5.00,000.00,027.9,026.8,000.0,036.1,029.3,5.9,0000.0,0003.74,0001.66,0001.36
2023-11-15 01:07:00,SystemResetWarning,0830.7,5.00,000.00,027.9,026.8,000.0,036.1,029.3,5.9,0000.0,0002.85,0001.66,0001.36
2023-11-15 01:08:00,SystemResetWarning,0830.7,5.00,000.00,027.9,026.8,000.0,036.1,029.3,5.8,0000.0,0002.78,0001.62,0001.36
2023-11-15 01:09:00,SystemResetWarning,0830.6,5.00,000.00,027.9,026.8,000.0,036.2,029.3,5.7,0000.0,0003.34,0001.66,0001.38
2023-11-15 01:10:00,SystemResetWarning,0830.6,5.00,000.00,027.9,026.8,000.0,036.2,029.3,5.7,0000.0,0003.45,0001.68,0001.40
2023-11-15 01:11:00,SystemResetWarning,0830.6,4.99,000.00,027.9,026.8,000.0,036.2,029.3,5.5,0000.0,0003.42,0001.71,0001.43
2023-11-15 01:12:00,SystemResetWarning,0830.6,5.00,000.00,027.9,026.8,000.0,036.2,029.3,5.6,0000.0,0003.47,0001.77,0001.48
2023-11-15 01:13:00,SystemResetWarning,0830.6,5.00,000.00,027.9,026.8,000.0,036.2,029.3,5.8,0000.0,0003.44,0001.80,0001.52
2023-11-15 01:14:00,SystemResetWarning,0830.6,5.01,000.00,027.9,026.8,000.0,036.2,029.3,5.9,0000.0,0003.52,0001.86,0001.56
2023-11-15 01:15:00,SystemResetWarning,0830.6,5.01,000.00,027.9,026.8,000.0,036.2,029.3,6.0,0000.0,0003.60,0001.89,0001.59
2023-11-15 01:16:00,SystemResetWarning,0830.6,5.00,000.00,027.9,026.8,000.0,036.2,029.3,6.0,0000.0,0003.58,0001.90,0001.61
2023-11-15 01:17:00,SystemResetWarning,0830.6,4.99,000.00,027.9,026.8,000.0,036.2,029.3,6.0,0000.0,0003.62,0001.91,0001.61
2023-11-15 01:18:00,SystemResetWarning,0830.6,4.99,000.00,027.9,026.8,000.0,036.2,029.3,6.0,0000.0,0003.85,0001.91,0001.62
2023-11-15 01:19:00,SystemResetWarning,0830.6,5.01,000.00,027.9,026.8,000.0,036.2,029.3,5.9,0000.0,0004.49,0001.95,0001.65
2023-11-15 01:20:00,SystemResetWarning,0830.7,5.01,000.00,027.9,026.8,000.0,036.2,029.3,5.9,0000.0,0003.73,0001.97,0001.66
2023-11-15 01:21:00,SystemResetWarning,0830.7,5.00,000.00,027.9,026.8,000.0,036.2,029.3,5.9,0000.0,0003.59,0001.97,0001.68
2023-11-15 01:22:00,SystemResetWarning,0830.7,4.99,000.00,027.9,026.8,000.0,036.2,029.3,5.9,0000.0,0003.73,0002.01,0001.68
2023-11-15 01:23:00,SystemResetWarning,0830.7,4.99,000.00,027.9,026.8,000.0,036.2,029.4,5.9,0000.0,0003.76,0002.02,0001.67
2023-11-15 01:24:00,SystemResetWarning,0830.7,5.00,000.00,027.9,026.8,000.0,036.3,029.3,5.8,0000.0,0003.89,0002.04,0001.66
2023-11-15 01:25:00,SystemResetWarning,0830.7,4.99,000.00,027.9,026.8,000.0,036.3,029.3,5.8,0000.0,0004.47,0002.03,0001.65
2023-11-15 01:26:00,SystemResetWarning,0830.8,5.00,000.00,027.9,026.8,000.0,036.3,029.3,5.9,0000.0,0004.53,0002.01,0001.63
2023-11-15 01:27:00,SystemResetWarning,0830.8,5.00,000.00,027.9,026.9,000.0,036.3,029.3,5.9,0000.0,0004.59,0002.03,0001.63
2023-11-15 01:28:00,SystemResetWarning,0830.8,5.00,000.00,027.9,026.9,000.0,036.3,029.3,6.0,0000.0,0004.63,0002.05,0001.63
2023-11-15 01:29:00,SystemResetWarning,0830.8,5.00,000.00,027.9,026.8,000.0,036.3,029.4,6.1,0000.0,0004.98,0002.05,0001.64
2023-11-15 01:30:00,SystemResetWarning,0830.8,5.01,000.00,027.9,026.8,000.0,036.3,029.3,6.2,0000.0,0004.59,0002.04,0001.62
2023-11-15 01:31:00,SystemResetWarning,0830.9,5.01,000.00,027.9,026.8,000.0,036.3,029.3,6.1,0000.0,0004.94,0002.03,0001.60
2023-11-15 01:32:00,SystemResetWarning,0830.9,5.00,000.00,027.9,026.8,000.0,036.3,029.4,6.1,0000.0,0005.00,0002.02,0001.59
2023-11-15 01:33:00,SystemResetWarning,0830.9,5.00,000.00,027.9,026.8,000.0,036.3,029.4,6.1,0000.0,0004.92,0001.98,0001.58
2023-11-15 01:34:00,SystemResetWarning,0830.9,4.99,000.00,027.9,026.8,000.0,036.3,029.4,6.1,0000.0,0004.85,0001.97,0001.61
2023-11-15 01:35:00,SystemResetWarning,0830.9,5.00,000.00,027.9,026.8,000.0,036.3,029.4,6.0,0000.0,0005.05,0002.00,0001.64
2023-11-15 01:36:00,SystemResetWarning,0830.9,5.00,000.00,027.9,026.8,000.0,036.3,029.4,6.1,0000.0,0005.66,0002.02,0001.63
2023-11-15 01:37:00,SystemResetWarning,0831.0,5.00,000.00,027.9,026.8,000.0,036.3,029.3,6.2,0000.0,0005.30,0002.04,0001.63
2023-11-15 01:38:00,SystemResetWarning,0830.9,5.00,000.00,027.9,026.8,000.0,036.3,029.3,6.2,0000.0,0005.48,0002.03,0001.63
2023-11-15 01:39:00,SystemResetWarning,0830.9,5.00,000.00,027.9,026.8,000.0,036.3,029.3,6.2,0000.0,0005.51,0002.04,0001.64
2023-11-15 01:40:00,SystemResetWarning,0830.9,5.00,000.00,027.9,026.8,000.0,036.3,029.3,6.2,0000.0,0005.56,0002.08,0001.66
2023-11-15 01:41:00,SystemResetWarning,0831.0,5.00,000.00,027.9,026.8,000.0,036.3,029.3,6.2,0000.0,0004.70,0002.06,0001.66
2023-11-15 01:42:00,SystemResetWarning,0831.0,4.99,000.00,027.9,026.8,000.0,036.3,029.3,6.2,0000.0,0004.48,0002.08,0001.68
2023-11-15 01:43:00,SystemResetWarning,0831.1,5.00,000.00,027.9,026.8,000.0,036.3,029.3,6.1,0000.0,0004.29,0002.08,0001.69
2023-11-15 01:44:00,SystemResetWarning,0831.1,5.00,000.00,027.9,026.8,000.0,036.3,029.3,6.1,0000.0,0004.28,0002.08,0001.69
2023-11-15 01:45:00,SystemResetWarning,0831.1,5.00,000.00,027.9,026.8,000.0,036.3,029.3,6.1,0000.0,0005.24,0002.04,0001.67
2023-11-15 01:46:00,SystemResetWarning,0831.1,5.01,000.00,027.9,026.8,000.0,036.3,029.3,6.1,0000.0,0005.73,0001.98,0001.61
2023-11-15 01:47:00,SystemResetWarning,0831.2,5.01,000.00,027.9,026.8,000.0,036.3,029.3,6.1,0000.0,0004.60,0001.97,0001.61
2023-11-15 01:48:00,SystemResetWarning,0831.2,5.00,000.00,027.9,026.8,000.0,036.3,029.3,6.1,0000.0,0004.64,0001.98,0001.62
2023-11-15 01:49:00,SystemResetWarning,0831.2,4.99,000.00,027.9,026.8,000.0,036.3,029.3,6.0,0000.0,0004.51,0001.99,0001.61
2023-11-15 01:50:00,SystemResetWarning,0831.1,4.99,000.00,027.9,026.8,000.0,036.3,029.3,6.0,0000.0,0004.45,0001.99,0001.60
2023-11-15 01:51:00,SystemResetWarning,0831.1,4.99,000.00,027.9,026.8,000.0,036.3,029.3,6.0,0000.0,0004.43,0001.98,0001.59
2023-11-15 01:52:00,SystemResetWarning,0831.1,5.00,000.00,027.9,026.8,000.0,036.3,029.3,6.0,0000.0,0004.43,0001.99,0001.60
2023-11-15 01:53:00,SystemResetWarning,0831.1,5.00,000.00,027.9,026.8,000.0,036.3,029.4,6.0,0000.0,0004.48,0002.00,0001.60
2023-11-15 01:54:00,SystemResetWarning,0831.1,5.01,000.00,027.9,026.8,000.0,036.3,029.3,6.0,0000.0,0004.48,0001.99,0001.60
2023-11-15 01:55:00,SystemResetWarning,0831.2,5.01,000.00,027.9,026.8,000.0,036.3,029.3,6.1,0000.0,0004.45,0002.00,0001.60
2023-11-15 01:56:00,SystemResetWarning,0831.2,5.00,000.00,028.0,026.8,000.0,036.3,029.3,6.1,0000.0,0003.95,0001.97,0001.60
2023-11-15 01:57:00,SystemResetWarning,0831.2,5.00,000.00,028.0,026.8,000.0,036.3,029.3,6.1,0000.0,0002.86,0001.99,0001.59
2023-11-15 01:58:00,SystemResetWarning,0831.2,4.99,000.00,028.0,026.8,000.0,036.3,029.3,6.1,0000.0,0002.84,0001.98,0001.59
2023-11-15 01:59:00,SystemResetWarning,0831.2,5.00,000.00,028.0,026.8,000.0,036.3,029.3,6.1,0000.0,0002.80,0001.96,0001.59
